IZ6UQU-13 Weather Reports


Display with metric or nautical units.
time (UTC)temp
F
wind
direction
speed
MPH
gust
MPH
rain 1hr
in
rain 24hr
in
rain mn
in
humidity
%
barometer
mb
20260508001004 52 173 0.0 2.0 0.00 0.08 0.00 90 953.6
20260508000504 52 282 0.0 1.0 0.00 0.08 0.00 89 953.7
20260508000004 53 0 0.0 2.0 0.00 0.08 0.00 89 953.7
20260507235504 53 282 0.0 2.0 0.00 0.08 0.00 89 953.6
20260507235004 53 282 0.0 1.0 0.00 0.08 0.00 88 953.7
20260507234504 53 275 0.0 2.0 0.00 0.08 0.00 88 953.8
20260507234004 53 280 0.0 4.0 0.00 0.08 0.00 88 953.7
20260507233504 53 282 1.0 4.0 0.00 0.08 0.00 88 953.8
20260507233004 53 276 2.0 3.0 0.00 0.08 0.00 88 954.0
20260507232503 53 283 0.0 4.0 0.00 0.08 0.00 87 954.0
20260507232004 54 237 2.0 4.0 0.00 0.08 0.00 87 954.0
20260507231504 53 291 3.0 5.0 0.00 0.08 0.00 87 953.9
20260507231004 53 241 1.0 5.0 0.00 0.08 0.00 87 954.0
20260507230503 54 285 1.0 2.0 0.00 0.08 0.00 88 954.0
20260507230006 54 287 0.0 2.0 0.00 0.08 0.00 87 954.1
20260507225503 54 0 0.0 1.0 0.00 0.08 0.00 86 954.1
20260507225004 54 297 0.0 1.0 0.00 0.08 0.00 85 954.2
20260507224504 54 288 0.0 1.0 0.00 0.08 0.00 86 954.2
20260507224004 55 0 0.0 2.0 0.00 0.08 0.00 86 954.3
20260507223503 55 0 0.0 2.0 0.00 0.08 0.00 85 954.3
20260507223003 55 0 0.0 1.0 0.00 0.08 0.00 85 954.3
20260507222504 55 0 0.0 0.0 0.00 0.08 0.00 84 954.3
20260507222004 56 0 0.0 1.0 0.00 0.08 0.00 84 954.3
20260507221504 56 346 0.0 1.0 0.00 0.08 0.00 84 954.3
20260507221004 55 288 0.0 3.0 0.00 0.08 0.00 83 954.3
20260507220504 55 288 0.0 3.0 0.00 0.08 0.00 83 954.3
20260507220004 55 288 0.0 1.0 0.00 0.08 0.00 84 954.3
20260507215504 55 0 0.0 1.0 0.00 0.08 0.00 83 954.3
20260507215004 55 285 0.0 4.0 0.00 0.08 0.00 83 954.3
20260507214504 55 255 1.0 4.0 0.00 0.08 0.00 82 954.3
20260507214004 55 280 0.0 3.0 0.00 0.08 0.00 84 954.4
20260507213504 55 275 1.0 4.0 0.00 0.08 0.00 83 954.4
20260507213004 55 240 0.0 4.0 0.00 0.08 0.00 83 954.4
20260507212503 55 270 2.0 3.0 0.00 0.08 0.00 83 954.4
20260507212004 55 0 0.0 1.0 0.00 0.08 0.00 83 954.3
20260507211504 54 286 0.0 1.0 0.00 0.08 0.00 83 954.3
20260507211004 55 0 0.0 3.0 0.00 0.08 0.00 83 954.2
20260507210004 55 0 0.0 2.0 0.00 0.08 0.00 83 954.1
20260507205503 55 314 0.0 2.0 0.00 0.08 0.00 83 954.2
20260507205004 55 288 0.0 0.0 0.00 0.08 0.00 82 954.1
20260507204503 55 0 0.0 1.0 0.00 0.08 0.00 82 954.3
20260507204003 55 0 0.0 3.0 0.00 0.08 0.00 82 954.3
20260507203503 55 293 1.0 3.0 0.00 0.08 0.00 82 954.4
20260507203003 55 290 1.0 2.0 0.00 0.08 0.00 82 954.4
20260507202503 55 286 0.0 3.0 0.00 0.08 0.00 82 954.3
20260507202004 55 280 1.0 3.0 0.00 0.08 0.00 82 954.3
20260507201503 55 280 2.0 3.0 0.00 0.08 0.00 82 954.4
20260507201003 55 283 0.0 3.0 0.00 0.08 0.00 82 954.4
20260507200503 55 279 0.0 2.0 0.00 0.08 0.00 82 954.3
20260507200004 55 287 0.0 3.0 0.00 0.08 0.00 82 954.4
20260507195503 55 273 0.0 3.0 0.00 0.08 0.00 82 954.3
20260507195003 56 277 1.0 3.0 0.00 0.08 0.00 81 954.3
20260507194503 56 0 0.0 3.0 0.00 0.08 0.00 80 954.4
20260507194003 57 253 2.0 3.0 0.00 0.08 0.00 79 954.3
20260507193503 57 273 1.0 4.0 0.00 0.08 0.00 79 954.3
20260507193003 57 259 1.0 5.0 0.00 0.08 0.00 78 954.3
20260507192503 58 197 4.0 5.0 0.00 0.08 0.00 78 954.3
20260507192003 58 279 0.0 3.0 0.00 0.08 0.00 77 954.3
20260507191503 59 286 0.0 3.0 0.00 0.08 0.00 75 954.1
20260507191003 60 281 0.0 3.0 0.00 0.08 0.00 73 954.3
20260507190503 60 202 0.0 4.0 0.00 0.08 0.00 73 954.1
20260507190004 60 110 0.0 4.0 0.00 0.08 0.00 72 954.1
20260507185503 60 0 0.0 3.0 0.00 0.08 0.00 71 954.0
20260507185003 61 120 1.0 3.0 0.00 0.08 0.00 71 953.9
20260507184503 61 61 0.0 2.0 0.00 0.08 0.00 70 953.9
20260507184003 61 77 0.0 3.0 0.00 0.08 0.00 70 953.9
20260507183503 61 64 1.0 4.0 0.00 0.08 0.00 69 953.9
20260507183003 62 82 1.0 4.0 0.00 0.08 0.00 69 953.9
20260507182503 62 69 0.0 2.0 0.00 0.08 0.00 68 953.9
20260507182003 62 0 0.0 2.0 0.00 0.08 0.00 68 953.8
20260507181503 62 346 0.0 2.0 0.00 0.08 0.00 68 953.8
20260507181003 63 0 0.0 2.0 0.00 0.08 0.00 66 953.8
20260507180503 63 0 0.0 2.0 0.00 0.08 0.00 66 953.8
20260507180003 64 103 0.0 2.0 0.00 0.08 0.00 64 953.8
20260507175503 64 10 0.0 2.0 0.00 0.08 0.00 63 953.8
20260507175003 64 107 0.0 2.0 0.00 0.08 0.00 63 953.7
20260507174503 64 335 0.0 6.0 0.00 0.08 0.00 63 953.7
20260507174003 64 87 2.0 6.0 0.00 0.08 0.00 63 953.7
20260507173503 65 103 2.0 5.0 0.00 0.08 0.00 62 953.6
20260507173003 66 108 1.0 6.0 0.00 0.08 0.00 60 953.6
20260507172503 66 355 1.0 6.0 0.00 0.08 0.00 59 953.6
20260507172003 66 26 2.0 5.0 0.00 0.08 0.00 59 953.6
20260507171503 67 0 0.0 5.0 0.00 0.08 0.00 57 953.5
20260507171003 68 29 2.0 5.0 0.00 0.08 0.00 57 953.5
20260507170503 68 47 1.0 6.0 0.00 0.08 0.00 57 953.4
20260507170003 69 51 1.0 6.0 0.00 0.08 0.00 57 953.2
20260507165503 69 47 1.0 5.0 0.00 0.08 0.00 56 953.2
20260507165003 69 31 2.0 7.0 0.00 0.08 0.00 57 953.2
20260507164503 69 72 1.0 7.0 0.00 0.08 0.00 57 953.2
20260507164003 69 71 0.0 6.0 0.00 0.08 0.00 57 953.3
20260507163503 68 76 2.0 6.0 0.00 0.08 0.00 58 953.2
20260507162503 68 91 2.0 6.0 0.00 0.08 0.00 57 953.2
20260507162003 68 87 1.0 6.0 0.00 0.08 0.00 55 953.2
20260507161503 68 104 3.0 7.0 0.00 0.08 0.00 57 953.2
20260507161003 68 83 2.0 8.0 0.00 0.08 0.00 54 953.1
20260507160503 69 83 4.0 8.0 0.00 0.08 0.00 52 953.1
20260507160003 69 99 4.0 7.0 0.00 0.08 0.00 52 953.1
20260507155503 70 86 3.0 7.0 0.00 0.08 0.00 48 953.1
20260507155003 70 101 3.0 8.0 0.00 0.08 0.00 48 953.1
20260507154503 70 80 4.0 8.0 0.00 0.08 0.00 45 953.2
20260507154003 70 81 0.0 6.0 0.00 0.08 0.00 50 953.1
20260507153503 70 92 2.0 7.0 0.00 0.08 0.00 48 953.2
20260507153003 70 91 3.0 7.0 0.00 0.08 0.00 47 953.2
20260507152503 70 59 1.0 9.0 0.00 0.08 0.00 45 953.2
20260507152003 71 97 3.0 9.0 0.00 0.08 0.00 45 953.2
20260507151503 71 81 1.0 8.0 0.00 0.08 0.00 44 953.1
20260507151003 71 94 2.0 5.0 0.00 0.08 0.00 43 953.2
20260507150503 71 63 1.0 10.0 0.00 0.08 0.00 41 953.1
20260507150003 71 77 3.0 10.0 0.00 0.08 0.00 43 953.1
20260507145502 71 94 4.0 7.0 0.00 0.08 0.00 44 953.2
20260507145003 71 105 3.0 10.0 0.00 0.08 0.00 44 953.2
20260507144503 71 71 2.0 10.0 0.00 0.08 0.00 44 953.4
20260507144003 71 73 1.0 7.0 0.00 0.08 0.00 44 953.4
20260507143003 70 87 4.0 10.0 0.00 0.08 0.00 44 953.5
20260507142502 70 96 6.0 10.0 0.00 0.08 0.00 44 953.6
20260507142002 70 99 7.0 10.0 0.00 0.08 0.00 42 953.6
20260507141502 70 96 4.0 8.0 0.00 0.08 0.00 51 953.6
20260507141002 70 91 4.0 8.0 0.00 0.08 0.00 50 953.7
20260507140502 70 17 1.0 6.0 0.00 0.08 0.00 54 953.7
20260507140004 70 11 0.0 7.0 0.00 0.08 0.00 56 953.9
20260507135503 70 72 3.0 7.0 0.00 0.08 0.00 55 953.9
20260507135004 70 90 3.0 7.0 0.00 0.08 0.00 53 953.9
20260507134503 70 24 1.0 7.0 0.00 0.08 0.00 53 953.9
20260507134003 71 94 3.0 7.0 0.00 0.08 0.00 53 954.0
20260507133503 71 98 2.0 7.0 0.00 0.08 0.00 54 954.0
20260507133003 71 65 2.0 7.0 0.00 0.08 0.00 51 954.0
20260507132503 71 43 3.0 7.0 0.00 0.08 0.00 52 954.0
20260507132003 71 60 2.0 6.0 0.00 0.08 0.00 53 954.1
20260507131503 70 95 1.0 5.0 0.00 0.08 0.00 52 954.1
20260507131003 70 13 2.0 8.0 0.00 0.08 0.00 52 954.1
20260507130503 70 38 3.0 8.0 0.00 0.08 0.00 54 954.3
20260507130004 70 95 5.0 9.0 0.00 0.08 0.00 54 954.3
20260507125504 70 90 4.0 10.0 0.00 0.08 0.00 54 954.3
20260507125004 70 84 6.0 10.0 0.00 0.08 0.00 54 954.5
20260507124508 71 35 5.0 10.0 0.00 0.08 0.00 52 954.5
20260507124003 70 43 3.0 7.0 0.00 0.08 0.00 54 954.5
20260507123503 71 59 2.0 6.0 0.00 0.08 0.00 55 954.5
20260507123004 70 82 3.0 6.0 0.00 0.08 0.00 56 954.5
20260507122504 70 87 3.0 5.0 0.00 0.08 0.00 53 954.6
20260507122004 70 188 1.0 4.0 0.00 0.08 0.00 53 954.6
20260507121504 70 57 2.0 8.0 0.00 0.08 0.00 55 954.7
20260507121004 70 86 3.0 8.0 0.00 0.08 0.00 53 954.6
20260507120504 70 64 4.0 8.0 0.00 0.08 0.00 54 954.7
20260507120005 71 93 5.0 8.0 0.00 0.08 0.00 54 954.7
20260507115504 70 44 0.0 7.0 0.00 0.08 0.00 54 954.7
20260507115004 70 14 3.0 7.0 0.00 0.08 0.00 55 954.8
20260507114504 70 88 2.0 6.0 0.00 0.08 0.00 56 954.8
20260507114004 69 16 2.0 5.0 0.00 0.08 0.00 57 954.8
20260507113504 69 293 2.0 6.0 0.00 0.08 0.00 55 954.9
20260507113005 68 136 0.0 6.0 0.00 0.08 0.00 56 954.8
20260507112504 68 15 2.0 6.0 0.00 0.08 0.00 56 954.8
20260507112004 68 5 2.0 6.0 0.00 0.08 0.00 57 954.8
20260507111506 69 105 2.0 5.0 0.00 0.08 0.00 57 954.8
20260507111005 69 50 2.0 5.0 0.00 0.08 0.00 57 954.8
20260507110504 68 339 0.0 5.0 0.00 0.08 0.00 58 954.8
20260507105504 69 131 1.0 5.0 0.00 0.08 0.00 56 954.8
20260507105004 68 53 1.0 5.0 0.00 0.08 0.00 58 954.8
20260507104504 68 62 1.0 5.0 0.00 0.08 0.00 59 954.9
20260507104004 67 67 2.0 5.0 0.00 0.08 0.00 60 955.0
20260507103504 67 97 3.0 4.0 0.00 0.08 0.00 62 955.0
20260507103004 67 92 1.0 4.0 0.00 0.08 0.00 62 955.0
20260507102504 67 277 0.0 4.0 0.00 0.08 0.00 62 955.0
20260507102006 66 339 1.0 5.0 0.00 0.08 0.00 64 955.1
20260507101504 66 313 2.0 5.0 0.00 0.08 0.00 61 955.1
20260507101004 66 280 0.0 5.0 0.00 0.08 0.00 63 955.3
20260507100504 65 43 3.0 6.0 0.00 0.08 0.00 65 955.3
20260507100004 65 75 1.0 6.0 0.00 0.08 0.00 65 955.4
20260507095504 65 81 1.0 5.0 0.00 0.08 0.00 66 955.2
20260507095004 65 29 1.0 5.0 0.00 0.08 0.00 65 955.2
20260507094504 65 315 0.0 3.0 0.00 0.08 0.00 64 955.2
20260507094004 65 349 1.0 6.0 0.00 0.08 0.00 64 955.2
20260507093504 64 21 2.0 6.0 0.00 0.08 0.00 67 955.2
20260507093004 64 94 2.0 6.0 0.00 0.08 0.00 69 955.2
20260507092504 63 359 0.0 5.0 0.00 0.08 0.00 68 955.2
20260507092004 63 91 2.0 6.0 0.00 0.08 0.00 69 955.2
20260507091504 64 101 2.0 6.0 0.00 0.08 0.00 68 955.3
20260507091004 64 343 1.0 5.0 0.00 0.08 0.00 68 955.3
20260507090504 64 78 1.0 5.0 0.00 0.08 0.00 68 955.4
20260507090005 64 53 0.0 5.0 0.00 0.08 0.00 65 955.4
20260507085504 63 21 2.0 4.0 0.00 0.08 0.00 67 955.5
20260507085004 63 32 0.0 3.0 0.00 0.08 0.00 67 955.5
20260507084504 64 39 0.0 2.0 0.00 0.08 0.00 68 955.5
20260507084004 62 271 0.0 3.0 0.00 0.08 0.00 69 955.4
20260507083504 62 0 0.0 3.0 0.00 0.08 0.00 72 955.4
20260507083004 62 104 0.0 3.0 0.00 0.08 0.00 72 955.5
20260507082504 61 104 0.0 3.0 0.00 0.08 0.00 75 955.6
20260507082004 60 63 1.0 4.0 0.00 0.08 0.00 75 955.6
20260507081504 60 125 2.0 4.0 0.00 0.08 0.00 76 955.7
20260507081004 59 116 0.0 4.0 0.00 0.08 0.00 79 955.6
20260507080504 58 118 1.0 4.0 0.00 0.08 0.00 78 955.6
20260507080004 58 182 2.0 3.0 0.00 0.08 0.00 78 955.6
20260507075503 58 105 1.0 4.0 0.00 0.20 0.00 80 955.7
20260507075004 58 92 2.0 4.0 0.00 0.20 0.00 80 955.7
20260507074005 57 88 0.0 4.0 0.00 0.20 0.00 80 955.6
20260507073503 57 76 2.0 4.0 0.00 0.20 0.00 80 955.6
20260507073004 57 46 0.0 2.0 0.00 0.20 0.00 82 955.5
20260507072503 58 289 1.0 5.0 0.00 0.20 0.00 79 955.3
20260507072004 58 304 0.0 5.0 0.00 0.20 0.00 81 955.4
20260507071504 57 331 0.0 2.0 0.00 0.20 0.00 84 955.4
20260507071003 55 342 0.0 3.0 0.00 0.20 0.00 86 955.3
20260507070504 55 300 0.0 3.0 0.00 0.20 0.00 86 955.4
20260507070009 55 100 0.0 3.0 0.00 0.20 0.00 88 955.4
20260507065503 55 66 0.0 3.0 0.00 0.28 0.00 87 955.4
20260507065004 55 316 0.0 1.0 0.00 0.28 0.00 89 955.4
20260507064504 55 0 0.0 1.0 0.00 0.28 0.00 90 955.5
20260507064003 54 0 0.0 3.0 0.00 0.28 0.00 90 955.5
20260507063503 54 324 1.0 3.0 0.00 0.28 0.00 88 955.4
20260507063003 54 0 0.0 1.0 0.00 0.28 0.00 92 955.3
20260507062503 53 0 0.0 1.0 0.00 0.28 0.00 94 955.4
20260507062003 53 0 0.0 1.0 0.00 0.28 0.00 93 955.4
20260507061503 53 0 0.0 0.0 0.00 0.28 0.00 94 955.5
20260507061003 53 0 0.0 0.0 0.00 0.28 0.00 94 955.4
20260507060503 52 0 0.0 0.0 0.00 0.28 0.00 94 955.5
20260507060003 52 0 0.0 0.0 0.00 0.28 0.00 95 955.5
20260507055503 52 0 0.0 1.0 0.00 0.31 0.00 95 955.4
20260507055003 52 0 0.0 1.0 0.00 0.31 0.00 95 955.4
20260507054503 52 0 0.0 0.0 0.00 0.31 0.00 95 955.4
20260507054003 52 0 0.0 0.0 0.00 0.31 0.00 95 955.4
20260507053004 51 0 0.0 1.0 0.00 0.31 0.00 95 955.2
20260507052503 51 222 0.0 2.0 0.00 0.31 0.00 95 955.1
20260507052003 51 0 0.0 2.0 0.00 0.31 0.00 95 955.0
20260507051503 51 196 0.0 1.0 0.00 0.31 0.00 96 955.1
20260507051003 51 0 0.0 1.0 0.00 0.31 0.00 96 955.2
20260507050503 51 126 1.0 1.0 0.00 0.31 0.00 96 955.2
20260507050003 50 85 0.0 1.0 0.00 0.31 0.00 96 955.2
20260507045503 50 334 0.0 1.0 0.00 0.31 0.00 96 955.1
20260507045003 50 0 0.0 0.0 0.00 0.31 0.00 96 955.1
20260507044503 50 0 0.0 0.0 0.00 0.31 0.00 96 955.0
20260507044003 50 0 0.0 1.0 0.00 0.31 0.00 96 955.0
20260507043503 50 0 0.0 1.0 0.00 0.31 0.00 96 955.0
20260507043003 50 101 0.0 1.0 0.00 0.31 0.00 96 954.8
20260507042503 50 0 0.0 0.0 0.00 0.31 0.00 96 954.8
20260507042003 50 0 0.0 0.0 0.00 0.31 0.00 96 954.8
20260507041503 50 0 0.0 0.0 0.00 0.31 0.00 96 954.8
20260507041003 50 0 0.0 3.0 0.00 0.31 0.00 96 954.9
20260507040503 50 0 0.0 3.0 0.00 0.31 0.00 96 954.8
20260507040003 50 96 1.0 3.0 0.00 0.31 0.00 96 954.7
20260507035503 50 0 0.0 2.0 0.00 0.39 0.00 96 954.8
20260507035003 50 82 0.0 2.0 0.04 0.39 0.00 96 954.8
20260507034503 50 115 0.0 2.0 0.04 0.39 0.00 96 954.7
20260507034003 50 340 0.0 1.0 0.04 0.39 0.00 95 954.7
20260507033503 50 46 0.0 1.0 0.04 0.39 0.00 95 954.7
20260507033003 50 0 0.0 1.0 0.04 0.39 0.00 95 954.7
20260507032503 50 79 0.0 1.0 0.08 0.39 0.00 95 954.6
20260507032003 50 0 0.0 0.0 0.08 0.39 0.00 95 954.7
20260507031503 50 0 0.0 0.0 0.08 0.39 0.00 95 954.7
20260507031003 50 0 0.0 0.0 0.08 0.39 0.00 94 954.7
20260507030503 50 0 0.0 0.0 0.08 0.39 0.00 94 954.6
20260507025503 51 0 0.0 2.0 0.08 0.55 0.00 94 954.6
20260507025003 51 92 0.0 2.0 0.04 0.51 0.00 93 954.6
20260507024503 51 97 0.0 1.0 0.04 0.51 0.00 93 954.6
20260507024003 51 67 0.0 1.0 0.04 0.51 0.00 92 954.6
20260507023503 51 95 0.0 1.0 0.04 0.51 0.00 92 954.7
20260507023003 52 97 0.0 2.0 0.04 0.51 0.00 91 954.6
20260507022503 52 137 0.0 4.0 0.00 0.47 0.00 91 954.7
20260507022003 52 135 2.0 4.0 0.00 0.47 0.00 90 954.7
20260507021503 52 143 0.0 1.0 0.00 0.47 0.00 89 954.7
20260507021003 52 0 0.0 4.0 0.00 0.47 0.00 90 954.8
20260507020503 52 111 0.0 4.0 0.00 0.47 0.00 89 954.7
20260507020003 52 113 0.0 3.0 0.00 0.47 0.00 89 954.6
20260507015502 52 124 0.0 3.0 0.00 0.47 0.00 89 954.6
20260507015003 52 126 0.0 5.0 0.00 0.47 0.00 89 954.6
20260507014502 52 158 2.0 5.0 0.00 0.47 0.00 88 954.4
20260507014003 52 155 1.0 3.0 0.00 0.47 0.00 88 954.4
20260507013502 52 88 0.0 1.0 0.00 0.47 0.00 88 954.4
20260507013003 52 65 0.0 1.0 0.00 0.47 0.00 88 954.5
20260507012503 52 0 0.0 2.0 0.00 0.47 0.00 87 954.5
20260507012002 52 129 0.0 2.0 0.00 0.47 0.00 87 954.4
20260507011502 52 154 1.0 2.0 0.00 0.47 0.00 87 954.4
20260507011002 52 161 0.0 2.0 0.00 0.47 0.00 88 954.4
20260507010502 52 175 1.0 3.0 0.00 0.47 0.00 88 954.4
20260507010002 52 186 2.0 3.0 0.00 0.47 0.00 88 954.6
20260507005502 52 94 0.0 1.0 0.00 0.47 0.00 88 954.7
20260507005002 52 147 0.0 2.0 0.00 0.47 0.00 88 954.7
20260507004502 52 127 0.0 3.0 0.00 0.47 0.00 87 954.7
20260507004002 52 191 1.0 3.0 0.00 0.47 0.00 88 954.6
20260507003502 52 0 0.0 1.0 0.00 0.47 0.00 88 954.5
20260507003002 52 0 0.0 3.0 0.00 0.47 0.00 88 954.4
20260507002502 52 236 0.0 3.0 0.00 0.47 0.00 87 954.4
20260507002002 53 248 1.0 3.0 0.00 0.47 0.00 87 954.4
20260507001502 53 190 0.0 3.0 0.00 0.47 0.00 87 954.4